Location: Karlsruhe
(49.0131°N, 8.3874°E)
Time: 16:25:27
(UTC+02:00)

ISS - Pass Details

Date: 05 January 2018
Orbit: 402 x 408 km, 51.6° (Epoch: 18 July)

Event Time Altitude Azimuth Distance (km) Brightness Sun altitude
Exits shadow 06:20:04 53° 344° (NNW) 521 -3.5 -18.7°
Drops below altitude 10° 06:23:31 10° 74° (ENE) 1,503 -0.1 -18.2°
Enters shadow 07:17:17 -74° 273° (W) 12,648 3.6 -9.8°
Maximum altitude 07:57:07 70° 14° (NNE) 450 -3.6 -4.0°
